Location: Marcé
(47.5801°N, 0.3280°W)
Time: 14:11:18
(UTC+01:00)

Tiros 1 despin weight - Pass Details

Date: 14 December 2021
Orbit: 592 x 641 km, 48.2° (Epoch: 19 January)

Event Time Altitude Azimuth Distance (km) Brightness Sun altitude
Rises 13:57:54 0° 281° (W) 2,851 ? 17.8°
Reaches altitude 10° 14:00:13 10° 280° (W) 1,941 ? 17.7°
Maximum altitude 14:04:40 85° 193° (SSW) 603 ? 17.5°
Drops below altitude 10° 14:09:04 10° 105° (ESE) 1,921 ? 17.3°
Sets 14:11:21 0° 105° (ESE) 2,819 ? 17.2°
